TimeAST,TemperatureF,Dew PointF,Humidity,Sea Level PressureIn,VisibilityMPH,Wind Direction,Wind SpeedMPH,Gust SpeedMPH,PrecipitationIn,Events,Conditions,WindDirDegrees,DateUTC
12:56 AM,77.0,69.1,76,29.93,10.0,East,8.1,-,0.01,,Overcast,100,2012-12-07 04:56:00
1:56 AM,75.9,66.9,74,29.92,10.0,East,9.2,-,N/A,,Overcast,90,2012-12-07 05:56:00
2:56 AM,75.9,66.0,71,29.90,10.0,East,6.9,-,N/A,,Mostly Cloudy,100,2012-12-07 06:56:00
3:56 AM,75.0,66.0,73,29.90,10.0,ESE,4.6,-,N/A,,Scattered Clouds,120,2012-12-07 07:56:00
4:56 AM,73.9,66.0,76,29.91,10.0,SSE,3.5,-,N/A,,Partly Cloudy,150,2012-12-07 08:56:00
5:56 AM,73.9,64.9,73,29.91,10.0,SE,3.5,-,N/A,,Partly Cloudy,140,2012-12-07 09:56:00
6:56 AM,75.0,64.9,71,29.93,10.0,Calm,Calm,-,N/A,,Scattered Clouds,0,2012-12-07 10:56:00
7:56 AM,75.9,64.9,69,29.94,10.0,Calm,Calm,-,N/A,,Scattered Clouds,0,2012-12-07 11:56:00
8:56 AM,79.0,66.0,64,29.97,10.0,ESE,3.5,-,N/A,,Scattered Clouds,120,2012-12-07 12:56:00
9:56 AM,81.0,66.9,62,29.97,10.0,ESE,6.9,-,N/A,,Scattered Clouds,110,2012-12-07 13:56:00
10:56 AM,82.0,66.0,58,29.97,10.0,East,13.8,-,N/A,,Mostly Cloudy,100,2012-12-07 14:56:00
11:56 AM,82.9,66.9,58,29.95,10.0,East,13.8,-,N/A,,Mostly Cloudy,80,2012-12-07 15:56:00
12:56 PM,82.9,66.0,56,29.92,10.0,East,13.8,-,N/A,,Mostly Cloudy,80,2012-12-07 16:56:00
1:56 PM,82.9,66.9,58,29.90,10.0,East,12.7,-,N/A,,Mostly Cloudy,90,2012-12-07 17:56:00
2:56 PM,82.0,68.0,62,29.89,10.0,East,12.7,-,N/A,,Mostly Cloudy,80,2012-12-07 18:56:00
3:56 PM,81.0,68.0,65,29.89,10.0,East,12.7,-,N/A,,Mostly Cloudy,90,2012-12-07 19:56:00
4:56 PM,80.1,66.9,64,29.91,10.0,East,12.7,-,N/A,,Scattered Clouds,90,2012-12-07 20:56:00
5:56 PM,79.0,64.0,60,29.93,10.0,East,9.2,-,N/A,,Mostly Cloudy,90,2012-12-07 21:56:00
6:56 PM,78.1,64.9,64,29.95,10.0,East,8.1,-,N/A,,Scattered Clouds,80,2012-12-07 22:56:00
7:56 PM,78.1,63.0,60,29.97,10.0,East,5.8,-,N/A,,Scattered Clouds,90,2012-12-07 23:56:00
8:56 PM,78.1,64.9,64,29.99,10.0,SSE,3.5,-,N/A,,Partly Cloudy,160,2012-12-08 00:56:00
9:56 PM,77.0,66.0,69,29.99,10.0,Calm,Calm,-,N/A,,Partly Cloudy,0,2012-12-08 01:56:00
10:56 PM,77.0,66.0,69,30.00,10.0,Calm,Calm,-,N/A,,Partly Cloudy,0,2012-12-08 02:56:00
11:56 PM,78.1,66.9,68,29.98,10.0,Calm,Calm,-,N/A,,Partly Cloudy,0,2012-12-08 03:56:00